157  
ASUS43 KMKX 200220  
RWRWI  
 
WISCONSIN REGIONAL WEATHER ROUNDUP  
NATIONAL WEATHER SERVICE MILWAUKEE/SULLIVAN WI  
900 PM CDT FRI AUG 19 2022  
 
NOTE: "FAIR" INDICATES FEW OR NO CLOUDS BELOW 12,000 FEET WITH NO  
SIGNIFICANT WEATHER AND/OR S TO VISIBILITY
.  
 
WIZ001-002-006>008-014>016-023>028-200300-  
NORTHWEST WISCONSIN  
 
CITY SKY/WX TMP DP RH WIND PRES REMARKS
 
SUPERIOR ARPT FOG 61 61 100 NE6 29.91R VSB 1/2  
ASHLAND CLEAR 63 61 93 NE3 29.91R  
HAYWARD PTCLDY 65 63 93 NE6 29.90R  
SIREN CLEAR 66 63 90 CALM 29.89R  
CUMBERLAND PTCLDY 68 63 83 CALM 29.89  
RICE LAKE N/A 66 63 90 CALM 29.90R  
CHETEK PTCLDY 70 64 81 CALM 29.89R  
LADYSMITH PTCLDY 67 67 100 E6 29.92S  
EAU CLAIRE MOCLDY 69 64 84 SE7 29.86R  
MENOMONIE MOCLDY 69 66 92 NE6 29.87R  
NEW RICHMOND PTCLDY 65 62 89 NE5 29.87R  
OSCEOLA MOCLDY 67 67 99 CALM 29.91R  

 
 
WIZ003>005-009-010-017-018-200300-  
NORTH CENTRAL WISCONSIN  
 
CITY SKY/WX TMP DP RH WIND PRES REMARKS
 
MANITOWISH WTR CLEAR 60 60 100 CALM 29.95R  
ARBOR VITAE PTCLDY 63 60 91 CALM 29.94R  
WOODRUFF PTCLDY 63 60 91 CALM 29.94R  
RHINELANDER CLOUDY 68 61 78 SE5 29.95R  
EAGLE RIVER CLEAR 65 59 81 CALM 29.95R  
LAND O LAKES PTCLDY 60 59 96 CALM 29.98R  
PHILLIPS CLEAR 65 64 96 SE3 29.92S  
TOMAHAWK CLOUDY 65 62 89 CALM 29.94R  
MEDFORD MOCLDY 61 61 100 NE3 29.91R  
MERRILL MOCLDY 64 64 100 E3 29.91S  

 
 
WIZ029-030-035-036-043>047-200300-  
CENTRAL WISCONSIN  
 
CITY SKY/WX TMP DP RH WIND PRES REMARKS
 
WAUSAU MOCLDY 70 63 78 NE5 29.89S  
MOSINEE CLOUDY 64 63 94 E5 29.92R  
MARSHFIELD MOCLDY 67 64 90 E8 29.88S  
STEVENS POINT CLEAR 69 65 89 CALM 29.90S  
WAUPACA PTCLDY 70 66 85 E3 29.90R  
WAUTOMA PTCLDY 70 65 84 E5 29.89R  
WISC RAPIDS MOCLDY 69 65 86 E6 29.88S  
CAMP DOUGLAS HVY RAIN 64 63 94 NW7 29.85R  

 
 
WIZ011>013-019>022-031-037>040-048>050-200300-  
NORTHEAST WISCONSIN  
 
CITY SKY/WX TMP DP RH WIND PRES REMARKS
 
ANTIGO LGT RAIN 65 64 96 E9 29.95R  
SHAWANO PTCLDY 68 68 100 E3 29.91S  
OCONTO MOCLDY 69 67 93 SE3 29.92S  
STURGEON BAY PTCLDY 69 66 90 SE8 29.95R  
GREEN BAY MOCLDY 72 64 76 SE6 29.91S  
MANITOWOC MOCLDY 68 67 96 E6 29.93S  
APPLETON MOCLDY 72 63 73 SE6 29.89F  
CLINTONVILLE MOCLDY 68 64 88 E3 29.92S  
OSHKOSH MOCLDY 71 65 81 SE6 29.89S  

 
 
WIZ032>034-041-042-053>061-200300-  
SOUTHWEST WISCONSIN  
 
CITY SKY/WX TMP DP RH WIND PRES REMARKS
 
LA CROSSE LGT RAIN 65 59 81 N5 29.83F  
SPARTA CLOUDY 63 63 99 CALM 29.86S  
VIROQUA CLOUDY 67 67 100 E6 29.85S  
BOSCOBEL MOCLDY 70 69 97 CALM 29.83R  
PRAIRIE DU CHI MOCLDY 70 67 90 CALM 29.82R  
PLATTEVILLE CLOUDY 70 65 86 SE12 29.86R  

 
 
WIZ056-057-062-063-064-067-068-200300-  
SOUTH CENTRAL WISCONSIN  
 
CITY SKY/WX TMP DP RH WIND PRES REMARKS
 
REEDSBURG CLOUDY 68 67 96 CALM 29.87S  
BARABOO/DELLS CLOUDY 69 62 78 SE5 29.87S  
LONE ROCK LGT RAIN 68 60 75 CALM 29.85R  
MINERAL POINT MOCLDY 66 63 88 SE8 29.87R  
MADISON MOCLDY 74 62 66 SE6 29.88R  
MIDDLETON MOCLDY 74 63 68 SE7 29.88S  
WATERTOWN N/A 70 61 74 SE6 29.90R  
MONROE NOT AVBL  
JANESVILLE PTCLDY 73 61 64 SE6 29.88R  

 
 
WIZ051-052-058>065-066-070>072-200300-  
SOUTHEAST WISCONSIN  
 
CITY SKY/WX TMP DP RH WIND PRES REMARKS
 
MILWAUKEE MOCLDY 75 64 68 SE6 29.92R  
WAUKESHA MOCLDY 70 59 68 SE3 29.93R  
MILWAUKEE/TIMM CLOUDY 75 57 53 SE6 29.92R  
RACINE MOCLDY 74 65 73 S6 29.94R  
KENOSHA MOCLDY 77 61 57 SE5 29.92R  
FOND DU LAC PTCLDY 72 63 73 SE7 29.90S  
SHEBOYGAN PTCLDY 72 65 78 S6 29.91F  
WEST BEND PTCLDY 66 63 88 CALM 29.93R  
JUNEAU MOCLDY 69 64 83 SE6 29.92R  

 
 
LSZ147-162-200300-  
LAKE SUPERIOR  
 
STATION/POSITION TIME TEMP WIND PRES WAVE
 
AIR SEA DIR/SP/G HT/PER  
(UTC) (F) (DEG/KT/KT) (MB) (FT/S)  
W MID LAKE BUOY 0200 62 40/ 4/ 4 1013.1  
DEVILS ISLAND 0200 65 80/ 7/ 8 1012.9R  
PORT WING 0130 63 50/ 4/ 8 1012.2R  
SAXON HARBOR 0140 67 CALM / 2 1011.9R  

 
 
LMZ867-665-643>646-200300-  
LAKE MICHIGAN  
 
STATION/POSITION TIME TEMP WIND PRES WAVE
 
AIR SEA DIR/SP/G HT/PER  
(UTC) (F) (DEG/KT/KT) (MB) (FT/S)  
CHAMBERS ISLAND 0140 70 110/ 2/ 4 N/A  
N MID LAKE BUOY 0200 71 71 210/ 8/ 10 1013.9  
NORTHPORT PIER 0100 70 140/ 3/ 5 1014.2  
KEWAUNEE LAKESHO 0124 170/ 6/ 7 1012.0  
SHEBOYGAN LAKESH 0200 71 170/ 11/ 12 1012.9S  
PORT WASHINGTON 0140 71 170/ 7/ 10 1013.9S  
ATWATER BUOY 0200 70 190/ 6/ 10 1015.5 1/ 4  
MILWAUKEE LAKESH 0200 72 150/ 5/ 6 N/A  
S MID LAKE BUOY 0200 74 72 130/ 12/ 14 1013.6  
KENOSHA LAKESH 0200 71 170/ 9/ 10 1012.9  

 
 
TC - TEMPERATURE IN CELSIUS  
VSB - VISIBILITY IN STATUTE MILES  
WCI - WIND CHILL INDEX  
HX - HEAT INDEX  
 
 
 
CLICK HERE TO GO TO PREVIOUS BULLETINS.

The Nexlab WI Page Main Text Page